Time,TemperatureF,DewpointF,PressureIn,WindDirection,WindDirectionDegrees,WindSpeedMPH,WindSpeedGustMPH,Humidity,HourlyPrecipIn,Conditions,Clouds,dailyrainin,SoftwareType,DateUTC
2013-07-13 00:00:00,67.6,58.6,30.14,SSE,148,2.0,2.0,73,0.00,,,0.00,Wunderground v.1.15,2013-07-13 04:00:00,
2013-07-13 00:05:00,67.6,58.6,30.14,SE,133,2.0,8.0,73,0.00,,,0.00,Wunderground v.1.15,2013-07-13 04:05:00,
2013-07-13 00:10:00,67.6,59.0,30.14,North,5,2.0,8.0,74,0.00,,,0.00,Wunderground v.1.15,2013-07-13 04:10:00,
2013-07-13 00:15:00,67.5,59.3,30.14,South,177,2.0,8.0,75,0.00,,,0.00,Wunderground v.1.15,2013-07-13 04:15:00,
2013-07-13 00:25:00,67.1,59.3,30.14,NE,55,1.0,8.0,76,0.00,,,0.00,Wunderground v.1.15,2013-07-13 04:25:00,
2013-07-13 00:30:00,66.9,59.5,30.14,SSE,155,1.0,8.0,77,0.00,,,0.00,Wunderground v.1.15,2013-07-13 04:30:00,
2013-07-13 00:35:00,66.7,59.3,30.14,SSE,165,2.0,8.0,77,0.00,,,0.00,Wunderground v.1.15,2013-07-13 04:35:00,
2013-07-13 00:40:00,66.5,59.4,30.15,North,5,1.0,8.0,78,0.00,,,0.00,Wunderground v.1.15,2013-07-13 04:40:00,
2013-07-13 00:45:00,66.1,59.7,30.15,SE,131,1.0,8.0,80,0.00,,,0.00,Wunderground v.1.15,2013-07-13 04:45:00,
2013-07-13 00:50:00,65.6,60.0,30.14,NE,46,1.0,1.0,82,0.00,,,0.00,Wunderground v.1.15,2013-07-13 04:50:00,
2013-07-13 00:55:00,65.2,59.6,30.14,ESE,103,1.0,8.0,82,0.00,,,0.00,Wunderground v.1.15,2013-07-13 04:55:00,
2013-07-13 01:00:00,64.9,59.3,30.14,SSE,153,1.0,8.0,82,0.00,,,0.00,Wunderground v.1.15,2013-07-13 05:00:00,
2013-07-13 01:05:00,64.8,59.2,30.14,NE,50,1.0,8.0,82,0.00,,,0.00,Wunderground v.1.15,2013-07-13 05:05:00,
2013-07-13 01:15:00,65.0,59.0,30.14,ENE,70,1.0,8.0,81,0.00,,,0.00,Wunderground v.1.15,2013-07-13 05:15:00,
2013-07-13 01:25:00,65.3,59.3,30.14,ENE,68,1.0,8.0,81,0.00,,,0.00,Wunderground v.1.15,2013-07-13 05:25:00,
2013-07-13 01:30:00,65.3,59.3,30.14,East,91,0.0,8.0,81,0.00,,,0.00,Wunderground v.1.15,2013-07-13 05:30:00,
2013-07-13 01:35:00,65.3,59.3,30.14,NNE,15,0.0,8.0,81,0.00,,,0.00,Wunderground v.1.15,2013-07-13 05:35:00,
2013-07-13 01:40:00,65.3,59.3,30.14,SSE,163,1.0,8.0,81,0.00,,,0.00,Wunderground v.1.15,2013-07-13 05:40:00,
2013-07-13 01:45:00,65.3,59.3,30.14,SSE,155,1.0,8.0,81,0.00,,,0.00,Wunderground v.1.15,2013-07-13 05:45:00,
2013-07-13 01:50:00,65.3,59.7,30.14,ENE,64,1.0,1.0,82,0.00,,,0.00,Wunderground v.1.15,2013-07-13 05:50:00,
2013-07-13 01:55:00,65.2,59.6,30.14,ENE,57,1.0,8.0,82,0.00,,,0.00,Wunderground v.1.15,2013-07-13 05:55:00,
2013-07-13 02:00:00,65.2,59.9,30.14,ENE,59,0.0,8.0,83,0.00,,,0.00,Wunderground v.1.15,2013-07-13 06:00:00,
2013-07-13 02:05:00,65.1,59.8,30.14,NE,49,1.0,8.0,83,0.00,,,0.00,Wunderground v.1.15,2013-07-13 06:05:00,
2013-07-13 02:15:00,65.1,60.1,30.14,ENE,76,1.0,8.0,84,0.00,,,0.00,Wunderground v.1.15,2013-07-13 06:15:00,
2013-07-13 02:20:00,65.0,60.0,30.14,ENE,63,1.0,1.0,84,0.00,,,0.00,Wunderground v.1.15,2013-07-13 06:20:00,
2013-07-13 02:25:00,65.0,60.4,30.14,SE,146,1.0,8.0,85,0.00,,,0.00,Wunderground v.1.15,2013-07-13 06:25:00,
2013-07-13 02:30:00,65.0,60.4,30.14,SE,128,1.0,8.0,85,0.00,,,0.00,Wunderground v.1.15,2013-07-13 06:30:00,
2013-07-13 02:35:00,65.0,60.7,30.14,SSW,205,1.0,8.0,86,0.00,,,0.00,Wunderground v.1.15,2013-07-13 06:35:00,
2013-07-13 02:40:00,65.1,60.8,30.14,SE,138,1.0,8.0,86,0.00,,,0.00,Wunderground v.1.15,2013-07-13 06:40:00,
2013-07-13 02:45:00,65.1,60.8,30.15,ESE,118,2.0,8.0,86,0.00,,,0.00,Wunderground v.1.15,2013-07-13 06:45:00,
2013-07-13 02:50:00,65.1,60.8,30.15,SE,144,1.0,8.0,86,0.00,,,0.00,Wunderground v.1.15,2013-07-13 06:50:00,
2013-07-13 03:00:00,65.2,61.2,30.15,SSW,202,1.0,8.0,87,0.00,,,0.00,Wunderground v.1.15,2013-07-13 07:00:00,
2013-07-13 03:05:00,65.1,61.1,30.15,East,96,1.0,8.0,87,0.00,,,0.00,Wunderground v.1.15,2013-07-13 07:05:00,
2013-07-13 03:10:00,65.1,61.1,30.15,NE,53,0.0,8.0,87,0.00,,,0.00,Wunderground v.1.15,2013-07-13 07:10:00,
2013-07-13 03:15:00,65.1,61.5,30.15,NE,49,0.0,8.0,88,0.00,,,0.00,Wunderground v.1.15,2013-07-13 07:15:00,
2013-07-13 03:20:00,65.1,61.5,30.15,East,82,0.0,8.0,88,0.00,,,0.00,Wunderground v.1.15,2013-07-13 07:20:00,
2013-07-13 03:25:00,65.1,61.5,30.15,NE,53,1.0,8.0,88,0.00,,,0.00,Wunderground v.1.15,2013-07-13 07:25:00,
2013-07-13 03:35:00,65.1,61.8,30.15,NE,42,1.0,1.0,89,0.00,,,0.00,Wunderground v.1.15,2013-07-13 07:35:00,
2013-07-13 03:45:00,65.1,61.5,30.15,WNW,301,0.0,8.0,88,0.00,,,0.00,Wunderground v.1.15,2013-07-13 07:45:00,
2013-07-13 03:50:00,65.1,61.8,30.15,NE,49,0.0,8.0,89,0.00,,,0.00,Wunderground v.1.15,2013-07-13 07:50:00,
2013-07-13 03:55:00,65.0,61.7,30.15,East,86,0.0,8.0,89,0.00,,,0.00,Wunderground v.1.15,2013-07-13 07:55:00,
2013-07-13 04:00:00,65.0,61.7,30.15,ESE,115,0.0,8.0,89,0.00,,,0.00,Wunderground v.1.15,2013-07-13 08:00:00,
2013-07-13 04:05:00,65.0,61.7,30.15,ENE,76,0.0,8.0,89,0.00,,,0.00,Wunderground v.1.15,2013-07-13 08:05:00,
2013-07-13 04:10:00,65.0,62.0,30.16,East,89,0.0,8.0,90,0.00,,,0.00,Wunderground v.1.15,2013-07-13 08:10:00,
2013-07-13 04:15:00,65.0,62.0,30.16,SSE,155,1.0,8.0,90,0.00,,,0.00,Wunderground v.1.15,2013-07-13 08:15:00,
2013-07-13 04:20:00,65.0,62.0,30.16,ESE,104,0.0,8.0,90,0.00,,,0.00,Wunderground v.1.15,2013-07-13 08:20:00,
2013-07-13 04:30:00,65.0,62.0,30.16,ENE,69,0.0,8.0,90,0.00,,,0.00,Wunderground v.1.15,2013-07-13 08:30:00,
2013-07-13 04:35:00,65.0,62.0,30.15,East,96,1.0,8.0,90,0.00,,,0.00,Wunderground v.1.15,2013-07-13 08:35:00,
2013-07-13 04:40:00,65.0,62.0,30.16,East,84,1.0,1.0,90,0.00,,,0.00,Wunderground v.1.15,2013-07-13 08:40:00,
2013-07-13 04:45:00,65.1,62.4,30.16,NNE,19,1.0,8.0,91,0.00,,,0.00,Wunderground v.1.15,2013-07-13 08:45:00,
2013-07-13 04:50:00,65.0,62.3,30.16,NE,56,0.0,8.0,91,0.00,,,0.00,Wunderground v.1.15,2013-07-13 08:50:00,
2013-07-13 04:55:00,65.0,62.3,30.16,SSE,153,1.0,8.0,91,0.00,,,0.00,Wunderground v.1.15,2013-07-13 08:55:00,
2013-07-13 05:00:00,65.0,62.3,30.16,SSE,161,1.0,1.0,91,0.00,,,0.00,Wunderground v.1.15,2013-07-13 09:00:00,
2013-07-13 05:10:00,64.9,62.2,30.17,SE,136,1.0,1.0,91,0.00,,,0.00,Wunderground v.1.15,2013-07-13 09:10:00,
2013-07-13 05:15:00,64.8,62.1,30.17,ESE,121,0.0,8.0,91,0.00,,,0.00,Wunderground v.1.15,2013-07-13 09:15:00,
2013-07-13 05:20:00,64.8,62.4,30.17,South,171,1.0,1.0,92,0.00,,,0.00,Wunderground v.1.15,2013-07-13 09:20:00,
2013-07-13 05:25:00,64.7,62.3,30.17,SE,144,1.0,8.0,92,0.00,,,0.00,Wunderground v.1.15,2013-07-13 09:25:00,
2013-07-13 05:30:00,64.8,62.4,30.17,SSE,148,1.0,8.0,92,0.00,,,0.00,Wunderground v.1.15,2013-07-13 09:30:00,
2013-07-13 05:35:00,64.7,62.3,30.17,SE,132,0.0,8.0,92,0.00,,,0.00,Wunderground v.1.15,2013-07-13 09:35:00,
2013-07-13 05:40:00,64.7,62.6,30.17,SSW,198,0.0,8.0,93,0.00,,,0.00,Wunderground v.1.15,2013-07-13 09:40:00,
2013-07-13 05:45:00,64.6,62.5,30.17,SSE,167,1.0,8.0,93,0.00,,,0.00,Wunderground v.1.15,2013-07-13 09:45:00,
2013-07-13 05:50:00,64.5,62.4,30.18,SSE,162,1.0,8.0,93,0.00,,,0.00,Wunderground v.1.15,2013-07-13 09:50:00,
2013-07-13 06:00:00,64.4,62.3,30.18,SSE,152,1.0,8.0,93,0.00,,,0.00,Wunderground v.1.15,2013-07-13 10:00:00,
2013-07-13 06:05:00,64.3,62.5,30.18,South,177,0.0,8.0,94,0.00,,,0.00,Wunderground v.1.15,2013-07-13 10:05:00,
2013-07-13 06:10:00,64.2,62.4,30.19,SSW,198,1.0,1.0,94,0.00,,,0.00,Wunderground v.1.15,2013-07-13 10:10:00,
2013-07-13 06:15:00,64.2,62.4,30.19,South,180,0.0,8.0,94,0.00,,,0.00,Wunderground v.1.15,2013-07-13 10:15:00,
2013-07-13 06:20:00,64.2,62.4,30.19,South,180,0.0,8.0,94,0.00,,,0.00,Wunderground v.1.15,2013-07-13 10:20:00,
2013-07-13 06:25:00,64.1,62.6,30.19,ESE,121,0.0,8.0,95,0.00,,,0.00,Wunderground v.1.15,2013-07-13 10:25:00,
2013-07-13 06:35:00,64.1,62.6,30.19,SSE,153,0.0,8.0,95,0.00,,,0.00,Wunderground v.1.15,2013-07-13 10:35:00,
2013-07-13 06:40:00,64.0,62.5,30.19,SSE,167,0.0,8.0,95,0.00,,,0.00,Wunderground v.1.15,2013-07-13 10:40:00,
2013-07-13 06:45:00,64.0,62.5,30.20,South,169,1.0,8.0,95,0.00,,,0.00,Wunderground v.1.15,2013-07-13 10:45:00,
2013-07-13 06:50:00,64.0,62.8,30.20,South,169,0.0,8.0,96,0.00,,,0.00,Wunderground v.1.15,2013-07-13 10:50:00,
2013-07-13 06:55:00,64.1,62.9,30.20,South,169,0.0,8.0,96,0.00,,,0.00,Wunderground v.1.15,2013-07-13 10:55:00,
2013-07-13 07:00:00,64.0,62.8,30.20,SSE,151,0.0,8.0,96,0.00,,,0.00,Wunderground v.1.15,2013-07-13 11:00:00,
2013-07-13 07:05:00,64.0,63.1,30.20,SSE,150,0.0,8.0,97,0.00,,,0.00,Wunderground v.1.15,2013-07-13 11:05:00,
2013-07-13 07:10:00,64.0,63.1,30.20,SSE,151,0.0,8.0,97,0.00,,,0.00,Wunderground v.1.15,2013-07-13 11:10:00,
2013-07-13 07:15:00,64.0,63.1,30.21,South,189,0.0,8.0,97,0.00,,,0.00,Wunderground v.1.15,2013-07-13 11:15:00,
2013-07-13 07:25:00,64.0,63.1,30.21,SE,134,1.0,8.0,97,0.00,,,0.00,Wunderground v.1.15,2013-07-13 11:25:00,
2013-07-13 07:30:00,64.1,63.2,30.20,South,181,1.0,8.0,97,0.00,,,0.00,Wunderground v.1.15,2013-07-13 11:30:00,
2013-07-13 07:35:00,64.3,63.4,30.21,SSE,156,1.0,8.0,97,0.00,,,0.00,Wunderground v.1.15,2013-07-13 11:35:00,
2013-07-13 07:40:00,64.4,63.5,30.21,SE,146,1.0,1.0,97,0.00,,,0.00,Wunderground v.1.15,2013-07-13 11:40:00,
2013-07-13 07:45:00,64.6,63.7,30.21,South,169,0.0,8.0,97,0.00,,,0.00,Wunderground v.1.15,2013-07-13 11:45:00,
2013-07-13 07:50:00,64.8,63.6,30.21,SSE,156,0.0,8.0,96,0.00,,,0.00,Wunderground v.1.15,2013-07-13 11:50:00,
2013-07-13 07:55:00,64.8,63.6,30.21,NE,50,0.0,8.0,96,0.00,,,0.00,Wunderground v.1.15,2013-07-13 11:55:00,
2013-07-13 08:05:00,65.1,63.9,30.22,SE,140,0.0,8.0,96,0.00,,,0.00,Wunderground v.1.15,2013-07-13 12:05:00,
2013-07-13 08:10:00,65.2,64.0,30.22,ESE,123,0.0,8.0,96,0.00,,,0.00,Wunderground v.1.15,2013-07-13 12:10:00,
2013-07-13 08:15:00,65.3,63.8,30.22,NNE,22,0.0,8.0,95,0.00,,,0.00,Wunderground v.1.15,2013-07-13 12:15:00,
2013-07-13 08:20:00,65.3,63.8,30.22,ESE,122,0.0,8.0,95,0.00,,,0.00,Wunderground v.1.15,2013-07-13 12:20:00,
2013-07-13 08:25:00,65.3,63.8,30.23,ENE,69,0.0,8.0,95,0.00,,,0.00,Wunderground v.1.15,2013-07-13 12:25:00,
2013-07-13 08:30:00,65.3,63.8,30.23,ENE,57,0.0,8.0,95,0.00,,,0.00,Wunderground v.1.15,2013-07-13 12:30:00,
2013-07-13 08:35:00,65.4,63.9,30.23,East,86,0.0,8.0,95,0.00,,,0.00,Wunderground v.1.15,2013-07-13 12:35:00,
2013-07-13 08:45:00,65.5,64.0,30.23,SSE,157,1.0,8.0,95,0.00,,,0.00,Wunderground v.1.15,2013-07-13 12:45:00,
2013-07-13 08:55:00,65.6,64.1,30.23,South,185,1.0,8.0,95,0.00,,,0.00,Wunderground v.1.15,2013-07-13 12:55:00,
2013-07-13 09:00:00,65.7,64.2,30.23,NNE,15,0.0,8.0,95,0.00,,,0.00,Wunderground v.1.15,2013-07-13 13:00:00,
2013-07-13 09:05:00,65.6,64.1,30.23,SSW,201,1.0,8.0,95,0.00,,,0.00,Wunderground v.1.15,2013-07-13 13:05:00,
2013-07-13 09:10:00,65.5,64.3,30.24,South,187,1.0,1.0,96,0.00,,,0.00,Wunderground v.1.15,2013-07-13 13:10:00,
2013-07-13 09:15:00,65.5,64.0,30.24,South,178,1.0,8.0,95,0.00,,,0.00,Wunderground v.1.15,2013-07-13 13:15:00,
2013-07-13 09:20:00,65.4,63.9,30.23,SSE,155,1.0,1.0,95,0.00,,,0.00,Wunderground v.1.15,2013-07-13 13:20:00,
2013-07-13 09:30:00,65.3,64.1,30.23,South,188,0.0,8.0,96,0.00,,,0.00,Wunderground v.1.15,2013-07-13 13:30:00,
2013-07-13 09:35:00,65.5,64.6,30.23,South,176,0.0,8.0,97,0.00,,,0.00,Wunderground v.1.15,2013-07-13 13:35:00,
2013-07-13 09:40:00,65.7,64.8,30.23,South,176,0.0,8.0,97,0.00,,,0.00,Wunderground v.1.15,2013-07-13 13:40:00,
2013-07-13 09:45:00,65.8,64.9,30.24,South,176,0.0,8.0,97,0.00,,,0.00,Wunderground v.1.15,2013-07-13 13:45:00,
2013-07-13 09:55:00,66.1,65.2,30.24,South,176,0.0,8.0,97,0.00,,,0.00,Wunderground v.1.15,2013-07-13 13:55:00,
2013-07-13 10:00:00,66.3,65.4,30.24,South,176,0.0,8.0,97,0.00,,,0.00,Wunderground v.1.15,2013-07-13 14:00:00,
2013-07-13 10:05:00,66.6,66.0,30.24,WNW,292,0.0,8.0,98,0.00,,,0.00,Wunderground v.1.15,2013-07-13 14:05:00,
2013-07-13 10:10:00,67.0,66.1,30.24,WSW,246,0.0,8.0,97,0.00,,,0.00,Wunderground v.1.15,2013-07-13 14:10:00,
2013-07-13 10:20:00,67.6,66.4,30.24,ESE,122,1.0,1.0,96,0.00,,,0.00,Wunderground v.1.15,2013-07-13 14:20:00,
2013-07-13 10:25:00,67.9,66.4,30.24,SE,136,1.0,8.0,95,0.00,,,0.00,Wunderground v.1.15,2013-07-13 14:25:00,
2013-07-13 10:30:00,68.0,66.5,30.24,SSE,163,0.0,8.0,95,0.00,,,0.00,Wunderground v.1.15,2013-07-13 14:30:00,
2013-07-13 10:35:00,68.1,66.6,30.24,SSW,207,0.0,8.0,95,0.00,,,0.00,Wunderground v.1.15,2013-07-13 14:35:00,
2013-07-13 10:40:00,68.4,66.9,30.24,SSW,207,0.0,8.0,95,0.00,,,0.00,Wunderground v.1.15,2013-07-13 14:40:00,
2013-07-13 10:45:00,68.7,67.2,30.24,South,182,0.0,8.0,95,0.00,,,0.00,Wunderground v.1.15,2013-07-13 14:45:00,
2013-07-13 10:50:00,69.1,67.6,30.24,SSW,195,1.0,8.0,95,0.00,,,0.00,Wunderground v.1.15,2013-07-13 14:50:00,
2013-07-13 11:00:00,69.5,67.7,30.24,SE,130,1.0,8.0,94,0.00,,,0.00,Wunderground v.1.15,2013-07-13 15:00:00,
2013-07-13 11:05:00,69.4,67.3,30.24,SE,125,1.0,8.0,93,0.00,,,0.00,Wunderground v.1.15,2013-07-13 15:05:00,
2013-07-13 11:10:00,69.5,67.4,30.24,South,172,1.0,1.0,93,0.00,,,0.00,Wunderground v.1.15,2013-07-13 15:10:00,
2013-07-13 11:15:00,69.5,67.4,30.24,South,173,1.0,8.0,93,0.00,,,0.00,Wunderground v.1.15,2013-07-13 15:15:00,
2013-07-13 11:20:00,69.6,67.8,30.24,South,188,1.0,1.0,94,0.00,,,0.00,Wunderground v.1.15,2013-07-13 15:20:00,
2013-07-13 11:25:00,69.7,67.6,30.24,SSE,153,1.0,8.0,93,0.00,,,0.00,Wunderground v.1.15,2013-07-13 15:25:00,
2013-07-13 11:30:00,69.7,67.9,30.24,South,189,1.0,1.0,94,0.00,,,0.00,Wunderground v.1.15,2013-07-13 15:30:00,
2013-07-13 11:35:00,69.7,67.9,30.24,South,190,1.0,2.0,94,0.00,,,0.00,Wunderground v.1.15,2013-07-13 15:35:00,
2013-07-13 11:45:00,69.7,67.9,30.25,SSW,192,1.0,8.0,94,0.00,,,0.00,Wunderground v.1.15,2013-07-13 15:45:00,
2013-07-13 11:50:00,69.7,67.9,30.25,SSW,204,1.0,8.0,94,0.00,,,0.00,Wunderground v.1.15,2013-07-13 15:50:00,
2013-07-13 11:55:00,69.7,67.9,30.25,SSW,204,1.0,8.0,94,0.00,,,0.00,Wunderground v.1.15,2013-07-13 15:55:00,
2013-07-13 12:00:00,69.7,67.9,30.25,SW,226,1.0,8.0,94,0.00,,,0.00,Wunderground v.1.15,2013-07-13 16:00:00,
2013-07-13 12:05:00,69.7,68.2,30.25,SSW,202,1.0,8.0,95,0.00,,,0.00,Wunderground v.1.15,2013-07-13 16:05:00,
2013-07-13 12:10:00,69.7,68.2,30.26,South,182,1.0,8.0,95,0.00,,,0.00,Wunderground v.1.15,2013-07-13 16:10:00,
2013-07-13 12:15:00,69.8,68.3,30.26,South,182,1.0,8.0,95,0.00,,,0.00,Wunderground v.1.15,2013-07-13 16:15:00,
2013-07-13 12:25:00,70.3,68.8,30.25,SSW,192,1.0,8.0,95,0.00,,,0.00,Wunderground v.1.15,2013-07-13 16:25:00,
2013-07-13 12:30:00,70.5,68.7,30.25,SE,125,1.0,8.0,94,0.00,,,0.00,Wunderground v.1.15,2013-07-13 16:30:00,
2013-07-13 12:35:00,70.6,68.8,30.25,South,191,1.0,8.0,94,0.00,,,0.00,Wunderground v.1.15,2013-07-13 16:35:00,
2013-07-13 12:40:00,70.8,69.0,30.25,SSE,163,1.0,8.0,94,0.00,,,0.00,Wunderground v.1.15,2013-07-13 16:40:00,
2013-07-13 12:45:00,70.9,69.1,30.25,South,173,1.0,8.0,94,0.00,,,0.00,Wunderground v.1.15,2013-07-13 16:45:00,
2013-07-13 12:50:00,71.0,68.9,30.25,South,187,1.0,8.0,93,0.00,,,0.00,Wunderground v.1.15,2013-07-13 16:50:00,
2013-07-13 12:55:00,71.2,69.4,30.25,SSW,206,1.0,8.0,94,0.00,,,0.00,Wunderground v.1.15,2013-07-13 16:55:00,
2013-07-13 13:05:00,71.3,69.2,30.25,SSE,148,1.0,2.0,93,0.00,,,0.00,Wunderground v.1.15,2013-07-13 17:05:00,
2013-07-13 13:10:00,71.3,69.2,30.25,SE,126,1.0,1.0,93,0.00,,,0.00,Wunderground v.1.15,2013-07-13 17:10:00,
2013-07-13 13:15:00,71.4,69.3,30.25,SE,126,1.0,8.0,93,0.00,,,0.00,Wunderground v.1.15,2013-07-13 17:15:00,
2013-07-13 13:20:00,71.4,69.3,30.25,SE,126,0.0,8.0,93,0.00,,,0.00,Wunderground v.1.15,2013-07-13 17:20:00,
2013-07-13 13:25:00,71.4,69.3,30.25,South,179,1.0,8.0,93,0.00,,,0.00,Wunderground v.1.15,2013-07-13 17:25:00,
2013-07-13 13:30:00,71.4,69.3,30.25,South,179,0.0,8.0,93,0.00,,,0.00,Wunderground v.1.15,2013-07-13 17:30:00,
2013-07-13 13:35:00,71.6,69.8,30.26,South,179,0.0,8.0,94,0.00,,,0.00,Wunderground v.1.15,2013-07-13 17:35:00,
2013-07-13 13:45:00,71.9,69.8,30.26,South,179,0.0,8.0,93,0.00,,,0.00,Wunderground v.1.15,2013-07-13 17:45:00,
2013-07-13 13:50:00,72.1,70.0,30.25,South,171,0.0,8.0,93,0.00,,,0.00,Wunderground v.1.15,2013-07-13 17:50:00,
2013-07-13 13:55:00,71.9,69.8,30.26,SSE,162,0.0,8.0,93,0.00,,,0.00,Wunderground v.1.15,2013-07-13 17:55:00,
2013-07-13 14:00:00,71.8,69.7,30.26,SE,134,1.0,8.0,93,0.00,,,0.00,Wunderground v.1.15,2013-07-13 18:00:00,
2013-07-13 14:05:00,71.7,69.6,30.26,SE,133,0.0,8.0,93,0.00,,,0.00,Wunderground v.1.15,2013-07-13 18:05:00,
2013-07-13 14:10:00,71.6,69.5,30.26,SE,132,0.0,8.0,93,0.00,,,0.00,Wunderground v.1.15,2013-07-13 18:10:00,
2013-07-13 14:15:00,71.5,69.4,30.26,SE,146,1.0,8.0,93,0.00,,,0.00,Wunderground v.1.15,2013-07-13 18:15:00,
2013-07-13 14:25:00,71.5,69.7,30.25,SE,145,0.0,8.0,94,0.00,,,0.00,Wunderground v.1.15,2013-07-13 18:25:00,
2013-07-13 14:30:00,71.5,69.7,30.26,SE,139,0.0,8.0,94,0.00,,,0.00,Wunderground v.1.15,2013-07-13 18:30:00,
2013-07-13 14:35:00,71.6,69.8,30.26,South,173,0.0,8.0,94,0.00,,,0.00,Wunderground v.1.15,2013-07-13 18:35:00,
2013-07-13 14:40:00,71.5,69.4,30.26,SSE,152,1.0,1.0,93,0.00,,,0.00,Wunderground v.1.15,2013-07-13 18:40:00,
2013-07-13 14:45:00,71.4,69.3,30.26,SE,133,1.0,8.0,93,0.00,,,0.00,Wunderground v.1.15,2013-07-13 18:45:00,
2013-07-13 14:50:00,71.2,69.4,30.26,SE,133,0.0,8.0,94,0.00,,,0.00,Wunderground v.1.15,2013-07-13 18:50:00,
2013-07-13 14:55:00,71.2,69.4,30.26,SE,130,0.0,8.0,94,0.00,,,0.00,Wunderground v.1.15,2013-07-13 18:55:00,
2013-07-13 15:05:00,70.9,69.1,30.26,SE,133,1.0,8.0,94,0.00,,,0.00,Wunderground v.1.15,2013-07-13 19:05:00,
2013-07-13 15:10:00,70.7,68.9,30.26,SE,126,1.0,8.0,94,0.00,,,0.00,Wunderground v.1.15,2013-07-13 19:10:00,
2013-07-13 15:15:00,70.6,69.1,30.26,SE,146,1.0,8.0,95,0.00,,,0.00,Wunderground v.1.15,2013-07-13 19:15:00,
2013-07-13 15:20:00,70.5,69.0,30.26,SE,145,1.0,1.0,95,0.00,,,0.00,Wunderground v.1.15,2013-07-13 19:20:00,
2013-07-13 15:25:00,70.5,69.0,30.26,SE,146,1.0,8.0,95,0.00,,,0.00,Wunderground v.1.15,2013-07-13 19:25:00,
2013-07-13 15:30:00,70.5,69.0,30.26,SSE,148,1.0,1.0,95,0.00,,,0.00,Wunderground v.1.15,2013-07-13 19:30:00,
2013-07-13 15:35:00,70.5,69.3,30.26,SSE,148,0.0,8.0,96,0.00,,,0.00,Wunderground v.1.15,2013-07-13 19:35:00,
2013-07-13 15:40:00,70.6,69.4,30.26,SSE,148,0.0,8.0,96,0.00,,,0.00,Wunderground v.1.15,2013-07-13 19:40:00,
2013-07-13 15:50:00,70.6,69.4,30.26,SSE,148,0.0,8.0,96,0.00,,,0.00,Wunderground v.1.15,2013-07-13 19:50:00,
2013-07-13 15:55:00,70.8,69.6,30.26,SSE,148,0.0,8.0,96,0.00,,,0.00,Wunderground v.1.15,2013-07-13 19:55:00,
2013-07-13 16:05:00,71.4,70.5,30.26,SSW,194,1.0,8.0,97,0.00,,,0.00,Wunderground v.1.15,2013-07-13 20:05:00,
2013-07-13 16:10:00,71.6,70.4,30.26,SSW,203,1.0,8.0,96,0.00,,,0.00,Wunderground v.1.15,2013-07-13 20:10:00,
2013-07-13 16:15:00,71.9,70.7,30.26,SSW,198,1.0,8.0,96,0.00,,,0.00,Wunderground v.1.15,2013-07-13 20:15:00,
2013-07-13 16:20:00,72.1,70.3,30.26,South,186,1.0,8.0,94,0.00,,,0.00,Wunderground v.1.15,2013-07-13 20:20:00,
2013-07-13 16:25:00,72.1,70.3,30.26,SE,144,1.0,8.0,94,0.00,,,0.00,Wunderground v.1.15,2013-07-13 20:25:00,
2013-07-13 16:30:00,72.2,70.4,30.26,SE,146,1.0,8.0,94,0.00,,,0.00,Wunderground v.1.15,2013-07-13 20:30:00,
2013-07-13 16:35:00,72.3,70.5,30.25,South,172,1.0,8.0,94,0.00,,,0.00,Wunderground v.1.15,2013-07-13 20:35:00,
2013-07-13 16:40:00,72.5,71.0,30.25,SSW,203,2.0,8.0,95,0.00,,,0.00,Wunderground v.1.15,2013-07-13 20:40:00,
2013-07-13 16:45:00,73.1,71.3,30.25,SW,225,2.0,8.0,94,0.00,,,0.00,Wunderground v.1.15,2013-07-13 20:45:00,
2013-07-13 16:55:00,73.1,70.6,30.25,SSW,204,1.0,8.0,92,0.00,,,0.00,Wunderground v.1.15,2013-07-13 20:55:00,
2013-07-13 17:00:00,73.0,70.9,30.25,South,175,1.0,1.0,93,0.00,,,0.00,Wunderground v.1.15,2013-07-13 21:00:00,
2013-07-13 17:05:00,73.2,70.7,30.25,SSE,166,1.0,8.0,92,0.00,,,0.00,Wunderground v.1.15,2013-07-13 21:05:00,
2013-07-13 17:10:00,73.5,71.4,30.25,SSW,207,2.0,8.0,93,0.00,,,0.00,Wunderground v.1.15,2013-07-13 21:10:00,
2013-07-13 17:15:00,73.6,71.1,30.25,SW,219,2.0,8.0,92,0.00,,,0.00,Wunderground v.1.15,2013-07-13 21:15:00,
2013-07-13 17:20:00,73.5,71.0,30.25,SW,219,1.0,8.0,92,0.00,,,0.00,Wunderground v.1.15,2013-07-13 21:20:00,
2013-07-13 17:25:00,73.6,71.1,30.25,SE,144,1.0,8.0,92,0.00,,,0.00,Wunderground v.1.15,2013-07-13 21:25:00,
2013-07-13 17:30:00,73.5,71.0,30.25,South,175,1.0,8.0,92,0.00,,,0.00,Wunderground v.1.15,2013-07-13 21:30:00,
2013-07-13 17:40:00,73.6,71.1,30.25,SSE,150,1.0,8.0,92,0.00,,,0.00,Wunderground v.1.15,2013-07-13 21:40:00,
2013-07-13 17:45:00,73.7,71.2,30.25,SSE,150,1.0,8.0,92,0.00,,,0.00,Wunderground v.1.15,2013-07-13 21:45:00,
2013-07-13 17:50:00,73.7,71.2,30.25,SW,225,1.0,8.0,92,0.00,,,0.00,Wunderground v.1.15,2013-07-13 21:50:00,
2013-07-13 17:55:00,73.7,70.9,30.25,SSW,200,1.0,8.0,91,0.00,,,0.00,Wunderground v.1.15,2013-07-13 21:55:00,
2013-07-13 18:00:00,73.7,71.2,30.25,SW,225,1.0,8.0,92,0.00,,,0.00,Wunderground v.1.15,2013-07-13 22:00:00,
2013-07-13 18:05:00,73.6,71.1,30.25,SW,225,1.0,8.0,92,0.00,,,0.00,Wunderground v.1.15,2013-07-13 22:05:00,
2013-07-13 18:10:00,73.6,71.1,30.25,SW,221,1.0,1.0,92,0.00,,,0.00,Wunderground v.1.15,2013-07-13 22:10:00,
2013-07-13 18:15:00,73.6,71.1,30.25,SW,221,1.0,8.0,92,0.00,,,0.00,Wunderground v.1.15,2013-07-13 22:15:00,
2013-07-13 18:25:00,73.8,71.3,30.26,SW,221,1.0,8.0,92,0.00,,,0.00,Wunderground v.1.15,2013-07-13 22:25:00,
2013-07-13 18:30:00,73.7,71.2,30.26,SW,221,1.0,1.0,92,0.00,,,0.00,Wunderground v.1.15,2013-07-13 22:30:00,
2013-07-13 18:35:00,73.6,71.1,30.26,SW,221,1.0,8.0,92,0.00,,,0.00,Wunderground v.1.15,2013-07-13 22:35:00,
2013-07-13 18:40:00,73.6,71.4,30.26,SW,221,1.0,1.0,93,0.00,,,0.00,Wunderground v.1.15,2013-07-13 22:40:00,
2013-07-13 18:45:00,73.5,71.4,30.26,SW,221,1.0,8.0,93,0.00,,,0.00,Wunderground v.1.15,2013-07-13 22:45:00,
2013-07-13 18:50:00,73.5,71.7,30.26,SW,221,1.0,8.0,94,0.00,,,0.00,Wunderground v.1.15,2013-07-13 22:50:00,
2013-07-13 19:00:00,73.3,71.5,30.26,SSW,209,1.0,8.0,94,0.00,,,0.00,Wunderground v.1.15,2013-07-13 23:00:00,
2013-07-13 19:05:00,73.2,71.1,30.26,SSW,195,1.0,8.0,93,0.00,,,0.00,Wunderground v.1.15,2013-07-13 23:05:00,
2013-07-13 19:10:00,73.1,71.0,30.26,SSE,166,2.0,2.0,93,0.00,,,0.00,Wunderground v.1.15,2013-07-13 23:10:00,
2013-07-13 19:15:00,73.0,71.2,30.26,SW,232,2.0,8.0,94,0.00,,,0.00,Wunderground v.1.15,2013-07-13 23:15:00,
2013-07-13 19:20:00,73.0,71.2,30.26,SW,232,1.0,1.0,94,0.00,,,0.00,Wunderground v.1.15,2013-07-13 23:20:00,
2013-07-13 19:25:00,72.9,71.4,30.26,SW,232,1.0,8.0,95,0.00,,,0.00,Wunderground v.1.15,2013-07-13 23:25:00,
2013-07-13 19:35:00,72.8,71.3,30.26,SW,229,1.0,8.0,95,0.00,,,0.00,Wunderground v.1.15,2013-07-13 23:35:00,
2013-07-13 19:40:00,72.8,71.3,30.26,SW,229,1.0,1.0,95,0.00,,,0.00,Wunderground v.1.15,2013-07-13 23:40:00,
2013-07-13 19:45:00,72.8,71.3,30.26,SW,229,1.0,8.0,95,0.00,,,0.00,Wunderground v.1.15,2013-07-13 23:45:00,
2013-07-13 19:50:00,72.8,71.0,30.26,South,190,0.0,8.0,94,0.00,,,0.00,Wunderground v.1.15,2013-07-13 23:50:00,
2013-07-13 19:55:00,72.7,70.9,30.26,South,190,1.0,8.0,94,0.00,,,0.00,Wunderground v.1.15,2013-07-13 23:55:00,
2013-07-13 20:00:00,72.7,70.9,30.26,South,190,1.0,8.0,94,0.00,,,0.00,Wunderground v.1.15,2013-07-14 00:00:00,
2013-07-13 20:10:00,72.6,71.1,30.26,South,190,0.0,8.0,95,0.00,,,0.00,Wunderground v.1.15,2013-07-14 00:10:00,
2013-07-13 20:15:00,72.6,71.1,30.26,South,190,0.0,8.0,95,0.00,,,0.00,Wunderground v.1.15,2013-07-14 00:15:00,
2013-07-13 20:20:00,72.5,71.0,30.27,South,190,0.0,8.0,95,0.00,,,0.00,Wunderground v.1.15,2013-07-14 00:20:00,
2013-07-13 20:25:00,72.5,71.0,30.26,South,190,0.0,8.0,95,0.00,,,0.00,Wunderground v.1.15,2013-07-14 00:25:00,
2013-07-13 20:30:00,72.4,70.9,30.27,South,190,0.0,8.0,95,0.00,,,0.00,Wunderground v.1.15,2013-07-14 00:30:00,
2013-07-13 20:35:00,72.4,70.9,30.27,South,190,0.0,8.0,95,0.00,,,0.00,Wunderground v.1.15,2013-07-14 00:35:00,
2013-07-13 20:40:00,72.3,71.1,30.27,South,190,0.0,8.0,96,0.00,,,0.00,Wunderground v.1.15,2013-07-14 00:40:00,
2013-07-13 20:45:00,72.3,71.1,30.27,South,190,0.0,8.0,96,0.00,,,0.00,Wunderground v.1.15,2013-07-14 00:45:00,
2013-07-13 20:50:00,72.2,71.0,30.27,South,190,0.0,8.0,96,0.00,,,0.00,Wunderground v.1.15,2013-07-14 00:50:00,
2013-07-13 20:55:00,72.1,70.9,30.27,South,190,0.0,8.0,96,0.00,,,0.00,Wunderground v.1.15,2013-07-14 00:55:00,
2013-07-13 21:05:00,72.1,70.9,30.27,South,190,0.0,8.0,96,0.00,,,0.00,Wunderground v.1.15,2013-07-14 01:05:00,
2013-07-13 21:10:00,72.1,70.9,30.27,South,190,0.0,8.0,96,0.00,,,0.00,Wunderground v.1.15,2013-07-14 01:10:00,
2013-07-13 21:15:00,72.0,70.8,30.27,South,190,0.0,8.0,96,0.00,,,0.00,Wunderground v.1.15,2013-07-14 01:15:00,
2013-07-13 21:20:00,72.0,70.8,30.27,South,190,0.0,8.0,96,0.00,,,0.00,Wunderground v.1.15,2013-07-14 01:20:00,
2013-07-13 21:25:00,72.0,70.8,30.27,South,190,0.0,8.0,96,0.00,,,0.00,Wunderground v.1.15,2013-07-14 01:25:00,
2013-07-13 21:30:00,71.9,70.7,30.27,South,190,0.0,8.0,96,0.00,,,0.00,Wunderground v.1.15,2013-07-14 01:30:00,
2013-07-13 21:35:00,71.8,70.9,30.27,South,190,0.0,8.0,97,0.00,,,0.00,Wunderground v.1.15,2013-07-14 01:35:00,
2013-07-13 21:45:00,71.7,70.8,30.28,South,190,0.0,8.0,97,0.00,,,0.00,Wunderground v.1.15,2013-07-14 01:45:00,
2013-07-13 21:50:00,71.6,70.7,30.28,South,190,0.0,8.0,97,0.00,,,0.00,Wunderground v.1.15,2013-07-14 01:50:00,
2013-07-13 21:55:00,71.5,70.6,30.28,South,190,0.0,8.0,97,0.00,,,0.00,Wunderground v.1.15,2013-07-14 01:55:00,
2013-07-13 22:00:00,71.5,70.6,30.28,South,190,0.0,8.0,97,0.00,,,0.00,Wunderground v.1.15,2013-07-14 02:00:00,
2013-07-13 22:05:00,71.4,70.5,30.28,South,190,0.0,8.0,97,0.00,,,0.00,Wunderground v.1.15,2013-07-14 02:05:00,
2013-07-13 22:10:00,71.3,70.4,30.28,South,190,0.0,8.0,97,0.00,,,0.00,Wunderground v.1.15,2013-07-14 02:10:00,
2013-07-13 22:15:00,71.2,70.6,30.28,South,190,0.0,8.0,98,0.00,,,0.00,Wunderground v.1.15,2013-07-14 02:15:00,
2013-07-13 22:25:00,71.1,70.5,30.28,South,190,0.0,8.0,98,0.00,,,0.00,Wunderground v.1.15,2013-07-14 02:25:00,
2013-07-13 22:30:00,71.1,70.5,30.28,South,190,0.0,8.0,98,0.00,,,0.00,Wunderground v.1.15,2013-07-14 02:30:00,
2013-07-13 22:40:00,71.1,70.5,30.28,South,190,0.0,8.0,98,0.00,,,0.00,Wunderground v.1.15,2013-07-14 02:40:00,
2013-07-13 22:45:00,71.1,70.5,30.28,South,190,0.0,8.0,98,0.00,,,0.00,Wunderground v.1.15,2013-07-14 02:45:00,
2013-07-13 22:50:00,71.1,70.5,30.28,South,190,0.0,8.0,98,0.00,,,0.00,Wunderground v.1.15,2013-07-14 02:50:00,
2013-07-13 22:55:00,71.0,70.4,30.29,South,190,0.0,8.0,98,0.00,,,0.00,Wunderground v.1.15,2013-07-14 02:55:00,
2013-07-13 23:05:00,70.9,70.6,30.29,South,190,0.0,8.0,99,0.00,,,0.00,Wunderground v.1.15,2013-07-14 03:05:00,
2013-07-13 23:10:00,70.9,70.6,30.29,South,190,0.0,8.0,99,0.00,,,0.00,Wunderground v.1.15,2013-07-14 03:10:00,
2013-07-13 23:15:00,70.9,70.6,30.29,South,190,0.0,8.0,99,0.00,,,0.00,Wunderground v.1.15,2013-07-14 03:15:00,
2013-07-13 23:20:00,70.9,70.6,30.29,South,190,0.0,8.0,99,0.00,,,0.00,Wunderground v.1.15,2013-07-14 03:20:00,
2013-07-13 23:25:00,70.9,70.6,30.29,South,190,0.0,8.0,99,0.00,,,0.00,Wunderground v.1.15,2013-07-14 03:25:00,
2013-07-13 23:30:00,70.9,70.6,30.29,South,190,0.0,8.0,99,0.00,,,0.00,Wunderground v.1.15,2013-07-14 03:30:00,
2013-07-13 23:35:00,70.8,70.5,30.29,South,190,0.0,8.0,99,0.00,,,0.00,Wunderground v.1.15,2013-07-14 03:35:00,
2013-07-13 23:40:00,70.8,70.5,30.29,South,190,0.0,8.0,99,0.00,,,0.00,Wunderground v.1.15,2013-07-14 03:40:00,
2013-07-13 23:45:00,70.8,70.5,30.29,South,190,0.0,8.0,99,0.00,,,0.00,Wunderground v.1.15,2013-07-14 03:45:00,
2013-07-13 23:50:00,70.8,70.5,30.29,South,190,0.0,8.0,99,0.00,,,0.00,Wunderground v.1.15,2013-07-14 03:50:00,